Lid_Strength_Index
3 3 3 2 3 3 2 3 2 2 2 2 2 2 1 1 2 2 3 3 3 -1 1 4 4 4 3 3 3 3 6 7 7 7 6 4 5 4 3 4 4 3 3 2 1
4 3 4 2 2 3 2 3 2 2 2 2 2 2 2 2 2 3 1 -1 -2 -2 4 5 4 4 3 4 3 4 5 6 5 4 5 5 5 4 5 5 5 4 2 1 1
4 4 4 2 2 3 2 3 2 2 2 2 2 2 2 1 3 3 -3 -3 -1 0 3 4 4 4 4 4 4 4 6 5 5 4 4 4 5 4 5 6 4 4 3 2 2
4 4 4 4 3 3 2 3 3 2 2 2 2 2 2 2 7 2 -4 -2 -2 2 4 4 5 4 4 5 4 6 5 5 5 4 4 5 4 5 4 4 3 3 2 2 2
4 5 4 4 3 3 3 3 3 3 3 3 2 2 3 5 4 0 -3 -2 3 3 4 5 5 4 5 5 5 5 5 4 4 5 4 4 5 5 4 3 2 2 2 2 2
3 4 4 4 4 3 3 3 3 3 3 2 2 2 5 6 2 -0 2 3 4 3 4 4 3 3 4 5 5 5 4 4 4 4 4 5 5 4 4 3 3 3 3 3 3
3 4 5 4 5 4 4 4 3 3 3 2 2 3 6 5 2 0 4 5 4 4 5 4 3 4 4 5 4 4 5 5 5 5 5 4 6 6 4 3 4 4 3 3 3
3 5 5 4 5 5 5 4 3 3 2 2 2 3 5 2 1 2 2 4 4 4 4 4 3 3 4 3 4 5 5 7 5 5 5 5 9 6 4 4 5 4 4 4 3
3 4 5 5 5 5 5 5 3 3 2 2 2 4 5 2 2 1 2 3 4 3 4 4 3 3 4 5 6 5 8 7 7 5 5 5 8 6 4 4 5 5 4 4 4
3 4 5 6 5 5 6 6 4 3 2 2 3 4 3 4 2 2 1 2 4 4 4 4 3 5 5 6 9 8 8 7 8 6 6 7 7 6 5 4 5 4 4 4 4
3 4 5 5 6 6 6 6 6 5 4 5 4 5 4 2 2 3 2 3 3 4 5 4 5 7 6 5 6 6 7 8 7 6 6 7 7 6 5 5 5 5 5 4 4
3 4 5 5 6 5 5 7 7 6 6 4 5 5 3 3 5 4 2 4 4 5 4 5 7 5 5 5 6 6 7 8 7 6 6 7 7 6 6 5 5 5 5 4 4
3 4 5 5 5 6 7 7 5 4 5 5 4 4 3 3 5 4 3 3 4 5 5 6 6 5 5 6 6 7 7 8 8 7 6 7 8 7 6 5 5 4 4 4 4
4 4 5 5 7 5 5 4 3 3 6 6 4 3 3 3 5 4 3 4 4 6 5 6 5 5 6 6 6 8 6 7 7 8 10 7 13 8 7 7 6 5 4 4 4
4 4 5 6 5 5 5 3 3 3 11 5 4 2 3 4 4 4 3 4 5 5 5 7 6 6 7 6 6 8 6 6 7 8 9 9 11 9 7 8 7 5 5 4 3
4 4 5 5 4 5 5 4 4 8 11 7 4 5 5 4 4 4 5 3 3 5 5 5 4 5 6 5 5 5 6 7 7 8 13 10 10 10 9 8 7 5 5 4 3
4 4 5 4 6 4 4 3 7 10 6 7 6 5 5 6 5 5 5 5 6 8 8 6 6 5 5 6 5 6 8 12 13 12 12 9 10 10 7 6 6 6 5 4 3
4 4 4 3 2 3 3 5 10 8 7 5 6 5 7 5 5 5 6 7 5 6 7 8 10 7 5 6 7 7 7 10 14 13 11 9 11 10 6 5 5 4 4 4 3
5 1 2 2 3 2 4 9 8 8 6 7 6 7 7 6 6 6 6 6 6 5 7 8 9 6 6 5 6 8 8 7 10 9 11 10 9 7 6 6 5 5 5 4 3
1 2 2 2 2 4 5 8 7 6 5 6 8 7 8 7 7 6 6 5 6 5 5 7 9 7 6 5 5 7 6 9 9 13 14 11 11 10 9 7 6 6 5 4 3
1 4 1 2 2 5 7 6 7 4 5 6 6 7 7 7 6 7 7 6 5 5 5 6 7 8 7 8 8 7 8 8 8 9 12 12 12 7 7 6 6 6 5 4 3
1 6 2 2 5 5 6 6 8 5 4 5 5 6 6 6 7 7 7 6 5 4 6 6 6 8 9 6 6 7 8 8 10 12 9 10 11 6 6 5 5 5 4 4 3
4 3 1 1 7 7 6 7 7 6 5 6 6 6 5 6 7 6 6 5 5 5 6 6 8 10 10 8 7 8 7 7 8 8 11 11 11 6 5 6 5 5 4 4 3
3 6 4 3 3 5 7 8 8 5 6 5 6 5 6 7 6 7 7 6 5 5 5 5 8 9 10 9 7 9 8 7 8 10 10 9 9 8 7 6 5 5 4 4 3
3 5 4 6 5 5 5 7 7 7 5 5 6 6 6 8 7 7 6 6 5 6 5 6 9 8 8 7 7 8 8 8 9 8 10 9 9 7 6 6 5 4 4 4 4
4 4 3 4 5 5 6 6 7 6 6 6 7 6 6 7 6 7 6 6 6 6 6 6 9 8 9 8 8 9 8 8 8 8 8 8 9 6 5 4 5 5 4 4 4
1 1 4 6 5 6 6 6 6 6 5 5 6 6 7 7 5 4 4 5 5 6 7 7 8 9 10 8 8 10 8 8 8 7 8 10 7 6 6 5 5 4 4 4 3